DECAYED

IRIDIUM 33 DEB, 34928 (Decayed)

Orbit data source: Space-Track

IRIDIUM 33 DEB, 34928 was space debris in LEO originally from a launch on Sun, 14 Sep 1997 UTC launched from the Tyuratam Missile And Space Complex (TTMTR). The debris from Iridium 33, an American commercial communications satellite, has been tracked extensively since its accidental collision with the defunct Russian satellite Cosmos 2251 in 2009. This event, occurring at high speed in low Earth orbit (LEO), generated thousands of pieces of space debris, significantly increasing the risk of further collisions. The Iridium 33 debris cloud has impacted space traffic management and orbital debris mitigation strategies, making it a subject of ongoing study in space situational awareness.

Not visible in the next 10 days
Identifier
34928, 1997-051NH
Orbit
Decayed
Country
Flag of USUS
Related business
Manufacturer
Unknown
Mission
Decayed spacecraft
Bus & Motor
Unknown
Mass
Unknown
Launch date (UTC)
1997-09-14 (29 years ago)
Launch vehicle
Unknown
Launch site
Tyuratam Missile And Space Complex (TTMTR)
Object type
Payload
Rocket body
Debris
Shape & HBR
Unknown shape, 0.1 m
Radar Cross Section
Small (<0.1 m²)

Expand to show TLE details & history
Last TLE update: 5 months ago

TLE from 5 months ago
0 IRIDIUM 33 DEB
1 34928U 97051NH  25319.35237483  .01570934  00000-0  84401-2 0  9991
2 34928  86.3522 344.3838 0002618 103.7619 256.3947 15.77695235658624
Epoch: 2025-11-15T08:27Z
TLE epoch observation values (Epoch: 2025-11-15T08:27:25.185Z)
Latitude
0.00001°
Longitude
162.84611°
Altitude
340.637 km
Speed
7.704 km/s
True Right ascension
22h 57m 32s
True Declination
0° 00' 00"
Sunlit
Object was in full shadow at epoch
Visualization orbit readout
Latitude
Unknown
Longitude
Unknown
Altitude
Unknown
Speed
Unknown
Apparent Right ascension
Unknown
Apparent Declination
Unknown
Sunlit
N/A
Visualization observer readout
Local Sidereal Time
21:23:25
Azimuth
Unknown
Elevation
Unknown
Doppler factor
Unknown
Orbital elements
Apogee altitude
335.495 km
Perigee altitude
331.981 km
Semi-major axis
6,711.875 km
Eccentricity
0.00026
Inclination
86.3522°
RAAN
344.3838°
Arg. of periapsis
103.7619°
True anomaly
256.36554°
Mean anomaly
256.3947°
Eccentric anomaly
256.38012°
Mean motion
3.94709 °/min
Orbital period
91.21 mins
BSTAR
0.0084401
Loading maneuver chart data...
Computing Atmospheric mass density...
Loading historical data...
Loading historical data...
Loading historical data...
Loading historical data...
Loading historical data...
Loading historical data...
Loading historical data...

Documentation

Showing up to 5 results
|